Temp
18 17 15 17 17 19 20 20 19 20 22 22 22 21 22 23 23 22 21 21 22 20 23 24 23 20 18 18 18 19 18 18 17 16 16 15 15 14 13 13 13 13 12 13
18 16 18 19 19 19 19 19 19 20 22 23 21 20 23 23 23 19 18 18 18 18 22 21 20 18 18 17 17 16 17 17 16 16 16 16 15 13 13 12 12 12 12 12
16 19 20 19 19 19 20 19 20 21 22 22 21 20 23 23 21 20 19 18 18 17 16 20 19 18 17 16 15 15 15 15 15 16 15 15 14 13 11 11 12 12 11 11
18 20 20 20 20 20 19 21 22 22 20 19 21 17 21 22 19 19 18 16 16 17 17 17 17 16 16 15 15 15 15 15 15 15 15 15 13 11 11 12 12 11 11 10
18 21 19 20 20 22 21 22 22 22 20 19 20 18 20 22 20 18 17 18 17 17 16 14 13 14 14 15 14 15 15 15 15 15 16 15 13 12 13 12 11 10 10 10
18 20 20 20 22 22 21 21 19 18 18 16 19 19 17 19 18 18 18 18 18 17 16 15 14 14 14 15 15 16 16 16 15 15 15 15 14 12 12 11 10 10 9 9
18 18 19 20 20 21 20 18 16 16 16 15 19 18 18 18 19 18 17 17 17 18 16 16 15 14 15 15 16 16 16 16 15 15 15 15 15 13 13 12 10 10 9 8
16 16 19 19 19 19 18 18 15 16 15 16 18 18 18 19 18 18 17 16 16 15 16 15 15 15 17 17 17 16 16 16 15 15 15 15 14 13 13 13 12 10 10 9
16 17 20 20 20 21 18 17 18 16 14 11 15 18 19 19 18 17 18 16 15 14 15 15 15 16 17 17 17 17 17 16 15 15 15 14 14 13 13 12 12 10 10 8
18 17 19 20 20 20 19 18 17 13 13 14 15 17 16 17 17 17 16 16 15 15 14 14 15 18 17 17 17 16 16 16 15 15 15 14 14 13 13 12 11 10 9 8
17 16 17 19 18 17 18 17 17 15 13 14 14 14 15 16 17 17 18 18 18 14 13 13 14 16 17 17 18 17 16 16 16 15 14 14 13 13 12 11 10 10 9 8
17 14 15 17 18 18 18 17 16 14 14 13 11 13 18 17 16 18 18 17 18 15 13 13 13 14 14 15 16 16 16 15 14 14 14 13 13 12 11 10 9 9 8 7
15 12 11 14 17 17 16 16 16 14 12 13 14 12 16 15 16 17 16 18 15 15 15 12 11 11 13 13 14 14 14 14 13 13 13 12 12 12 11 11 9 8 7 6
14 12 13 14 15 14 14 14 15 13 9 11 12 13 15 15 15 13 14 16 16 15 15 11 10 11 12 13 14 13 13 13 13 12 12 11 11 10 10 9 8 7 6 5
12 10 10 11 12 13 13 13 13 14 13 11 12 14 15 14 14 14 14 14 14 14 13 11 10 9 11 12 13 12 12 12 11 11 10 9 9 8 8 8 6 5 4 3
11 9 8 10 11 12 12 12 12 12 13 13 12 12 14 14 13 13 14 14 14 14 12 11 11 10 10 11 11 12 12 11 10 10 10 8 8 6 5 4 4 3 3 2
10 10 10 11 11 10 10 11 12 12 13 13 10 12 13 13 12 11 11 11 12 11 11 10 9 9 9 10 10 10 10 9 9 8 8 7 5 4 3 3 2 2 1 0
10 10 9 9 9 7 11 13 13 13 13 13 13 13 12 12 11 9 9 9 9 9 9 9 8 8 8 8 8 8 8 7 7 6 6 5 4 2 2 1 -0 -1 -1 -2
10 8 7 7 8 10 11 12 13 12 11 12 12 11 12 11 10 9 9 8 8 8 8 7 7 6 4 5 6 6 6 6 5 5 4 3 2 0 -0 -1 -1 -2 -2 -2
10 9 6 7 5 7 9 12 13 13 10 11 11 11 10 10 6 7 9 7 6 6 6 6 5 4 3 3 4 5 5 5 3 3 2 1 0 -1 -1 -1 -1 -2 -2 -3
7 5 5 6 7 7 9 12 12 9 10 10 10 10 10 8 7 8 6 6 5 5 5 5 4 4 3 3 3 2 3 2 2 1 1 -0 -1 -1 -1 -1 -2 -3 -3 -3
8 7 7 5 5 5 10 11 9 8 9 9 9 10 10 9 8 7 5 4 2 3 5 5 4 3 3 3 3 1 1 1 0 -0 -1 -2 -2 -1 -2 -2 -3 -3 -4 -4
7 7 6 7 6 8 10 9 11 9 9 9 9 10 10 8 7 6 3 2 1 1 2 4 4 3 2 2 2 1 1 -0 -1 -1 -2 -2 -2 -2 -2 -3 -4 -4 -5 -5
8 9 6 8 9 9 10 9 10 10 9 10 9 9 10 7 2 2 2 2 1 2 2 4 3 2 2 1 1 1 0 -1 -2 -2 -3 -3 -3 -3 -4 -4 -4 -5 -5 -6
6 7 7 6 7 7 8 8 9 10 9 9 10 10 9 7 5 4 4 3 1 2 3 4 3 2 1 1 0 -0 -1 -2 -2 -3 -3 -4 -4 -4 -4 -4 -4 -5 -5 -5
5 5 4 6 6 7 6 9 9 8 8 8 8 8 8 7 7 6 4 4 3 3 4 3 2 1 1 -0 -1 -1 -2 -2 -2 -4 -4 -4 -4 -4 -4 -5 -5 -5 -5 -5
Height
794 808 813 802 798 792 794 800 802 791 778 781 779 778 767 756 751 751 748 745 738 737 725 726 733 740 747 753 757 760 766 773 775 780 782 791 797 802 805 809 811 812 813 814
800 805 794 791 792 795 796 801 799 787 774 773 778 778 763 758 755 761 757 749 744 736 729 729 733 740 741 744 752 759 764 772 779 783 785 787 793 798 801 805 808 811 812 813
803 788 783 791 791 795 792 795 791 788 775 771 776 779 763 756 759 758 755 752 746 745 740 730 737 738 741 745 753 763 768 775 780 785 789 794 796 799 801 803 805 807 810 812
792 780 783 787 788 784 795 776 778 780 786 801 776 805 766 758 767 763 756 755 751 744 737 731 735 743 750 758 764 767 772 780 785 787 788 789 790 794 798 801 804 806 808 810
786 775 780 782 780 772 781 768 774 777 788 792 787 801 771 753 765 768 763 756 753 747 743 744 748 749 755 758 764 770 778 782 784 784 785 788 790 793 797 800 801 805 807 810
780 768 771 770 765 766 769 776 782 788 797 814 788 790 789 772 772 769 767 766 757 751 747 751 756 759 765 768 773 777 781 782 783 785 786 788 789 792 796 800 803 803 806 807
777 773 768 766 774 768 772 790 817 819 819 817 783 792 784 772 771 771 772 770 764 759 758 754 751 757 767 773 776 779 782 781 783 785 786 787 789 790 792 796 798 802 805 807
785 791 765 759 767 774 780 787 814 819 821 808 787 794 785 771 771 770 772 770 767 763 763 764 766 764 766 773 777 779 780 780 783 785 785 787 790 790 793 793 795 797 799 804
781 778 749 751 751 758 776 789 781 800 811 832 801 783 775 770 771 772 771 774 775 771 769 769 772 773 773 773 778 779 780 781 782 784 787 787 789 790 791 791 792 796 799 801
760 770 754 752 750 755 760 766 791 810 824 820 799 788 789 779 775 773 773 774 775 775 773 771 770 769 769 771 774 777 778 779 782 783 784 785 787 788 788 788 790 791 795 798
756 765 768 758 761 770 767 772 776 790 804 808 810 798 777 777 773 773 769 768 769 773 771 768 766 768 768 770 771 773 776 778 779 780 782 784 785 785 785 786 785 789 788 793
750 767 778 767 756 755 757 764 770 793 797 802 813 797 765 769 770 769 768 770 766 769 768 766 768 767 766 768 769 772 774 776 778 779 779 780 781 781 782 784 785 785 785 790
748 772 792 779 766 761 769 769 770 779 793 795 797 797 769 773 776 776 776 767 769 768 767 769 769 768 766 767 769 772 774 776 776 776 776 776 776 777 777 778 781 783 785 787
747 766 768 767 765 772 776 778 777 783 813 802 797 789 772 774 773 778 778 770 766 765 763 767 769 765 765 767 768 771 772 772 773 773 772 771 771 772 774 776 776 778 782 786
756 778 780 776 774 774 776 777 782 783 789 801 793 782 769 775 772 767 766 765 763 760 761 761 765 765 766 767 768 768 768 768 769 769 769 769 771 772 773 773 776 778 781 786
758 785 792 790 781 776 780 779 781 783 783 785 785 782 771 765 766 766 762 760 758 757 757 760 761 762 764 765 765 763 764 766 766 767 767 768 769 769 769 772 774 777 779 782
764 775 783 781 783 786 790 777 777 776 776 779 792 777 768 768 768 769 765 761 756 759 763 764 765 766 765 764 766 764 762 763 764 764 765 765 765 767 768 770 773 775 776 780
764 771 784 790 793 823 771 765 767 768 767 770 770 770 771 771 773 772 769 766 766 766 768 769 769 768 765 766 762 764 762 763 762 763 764 764 764 766 768 771 775 777 778 782
756 774 796 802 793 780 764 764 764 767 774 768 769 770 769 770 773 773 771 770 770 769 769 769 769 769 766 765 763 763 761 759 760 762 763 762 763 766 768 771 777 780 784 786
761 770 790 794 811 803 773 758 760 762 779 770 770 771 771 771 789 779 768 769 769 769 770 770 769 766 767 761 763 762 758 755 758 761 763 765 765 766 769 771 777 781 783 786
777 789 798 795 794 784 762 757 756 782 774 767 767 769 770 776 775 768 767 766 764 764 765 766 766 763 764 761 760 759 756 757 760 761 763 767 767 769 770 773 776 780 784 789
761 773 782 798 800 799 754 755 769 769 761 763 764 763 764 766 765 765 765 764 764 762 762 763 764 760 762 758 756 759 758 758 762 762 765 769 769 770 773 775 779 781 785 789
766 759 771 771 772 754 748 751 750 753 754 756 759 760 759 761 763 762 764 766 765 763 763 762 762 762 760 758 757 756 757 761 762 763 766 771 773 773 774 778 780 782 787 790
748 746 761 758 750 751 748 748 748 749 750 751 755 757 757 760 762 762 763 762 762 761 763 763 760 760 762 759 757 755 759 761 762 763 766 770 773 775 776 778 783 783 789 791
756 752 754 758 752 750 747 748 746 746 747 749 752 753 753 754 757 756 756 757 755 756 755 757 760 762 760 760 756 758 760 761 763 764 766 769 772 774 778 780 784 788 789 791
754 754 761 750 750 747 748 745 746 747 747 747 748 748 747 748 749 749 749 749 750 751 753 748 755 758 759 760 759 760 760 759 762 763 766 768 771 773 778 782 785 790 791 795
Wind_Speed
4 5 8 14 10 5 3 5 8 8 13 5 9 6 10 10 8 10 10 8 9 10 19 32 25 34 35 40 46 46 42 37 35 32 31 24 20 15 12 10 8 9 12 11
1 10 14 11 10 11 11 11 12 9 7 2 7 7 4 5 5 6 8 13 14 11 6 6 24 31 39 43 43 41 41 37 33 31 28 26 23 18 16 13 10 9 11 10
7 8 14 9 11 11 13 12 6 6 4 2 5 6 1 1 6 9 10 8 13 8 10 6 14 27 32 36 33 28 32 32 30 25 21 17 19 16 17 15 13 12 12 11
8 16 15 11 10 10 11 7 6 3 5 3 3 6 5 6 6 10 11 10 9 12 11 5 7 15 20 21 24 28 29 27 23 23 22 25 27 21 16 18 15 12 13 14
7 3 8 9 9 6 4 2 1 1 2 2 3 2 5 3 5 5 5 6 7 8 12 12 10 18 21 26 26 27 25 23 22 23 22 24 25 23 17 18 15 13 12 13
8 6 2 5 1 3 4 4 6 5 2 4 9 7 5 4 9 5 4 7 10 9 13 14 19 24 22 20 20 23 23 23 22 22 22 25 26 24 20 18 17 16 15 15
7 18 11 2 5 3 4 6 2 3 1 6 4 2 5 6 7 7 7 5 6 10 9 7 14 18 21 21 23 24 25 24 23 24 21 23 26 27 23 22 22 20 18 17
9 6 13 8 17 6 6 7 5 6 4 3 5 4 3 4 6 6 7 6 6 8 8 7 5 14 21 22 22 20 23 20 22 22 21 21 24 23 23 23 24 24 22 20
7 6 1 1 7 14 4 4 8 4 3 3 4 2 2 3 5 7 7 8 6 7 7 8 9 10 11 12 16 17 16 13 18 21 21 20 22 22 23 24 26 26 22 20
3 0 2 1 4 2 10 7 4 3 3 5 4 4 5 5 4 6 8 7 7 5 6 6 7 8 9 8 9 13 13 13 12 15 21 22 22 22 22 25 29 29 24 23
5 5 4 2 3 7 2 5 3 6 5 4 3 5 4 7 7 6 3 6 3 7 7 7 7 10 12 10 7 6 11 14 18 16 15 20 22 21 21 27 30 30 29 28
5 5 5 4 2 3 2 4 6 4 5 4 4 4 4 6 11 7 8 8 3 6 8 8 7 11 14 14 12 8 9 14 16 16 17 17 19 21 20 23 28 29 33 32
6 2 2 3 3 4 4 3 4 5 3 4 4 5 5 8 7 4 9 2 5 6 6 2 6 8 13 11 9 6 7 11 13 16 18 19 21 21 23 25 26 29 34 34
6 3 4 9 4 3 4 1 3 4 3 2 4 7 16 7 4 7 8 7 8 8 8 7 6 8 11 10 8 6 9 13 16 18 21 24 26 25 23 26 28 33 33 31
5 4 3 4 4 3 1 3 5 2 3 5 6 9 17 4 8 7 7 8 8 8 6 11 7 5 12 11 10 8 5 7 12 19 20 23 24 23 23 26 31 31 31 28
2 3 3 2 3 3 4 5 4 7 7 7 7 14 11 11 5 7 9 9 9 5 8 8 7 8 11 14 12 9 5 6 8 12 19 21 24 23 25 28 29 30 31 31
5 5 3 2 1 4 6 5 8 4 4 5 5 11 10 8 7 6 7 5 3 7 6 5 5 4 1 2 3 3 4 7 8 10 12 17 20 22 26 28 28 32 33 30
7 6 3 3 3 2 5 0 3 4 7 1 6 6 2 2 2 4 6 6 7 6 5 3 2 3 2 2 2 4 4 7 9 9 10 13 17 22 24 26 26 25 27 26
4 5 3 5 4 4 8 6 5 3 4 2 3 1 2 3 3 3 2 4 4 3 2 2 2 1 2 4 2 5 5 6 7 7 10 12 18 21 22 22 21 21 22 23
4 4 4 3 4 8 4 3 6 4 8 3 2 2 3 3 3 4 3 3 3 1 1 4 3 2 1 3 4 4 5 4 4 7 9 12 16 20 23 24 21 22 24 23
4 1 6 3 4 6 7 4 4 4 7 5 5 5 2 1 4 4 4 6 5 4 3 4 4 4 1 2 5 5 4 4 6 8 9 12 16 20 22 22 23 24 23 22
7 7 4 3 3 9 6 3 9 7 4 6 5 4 2 3 5 6 8 6 6 5 2 3 4 2 2 1 3 3 3 3 6 7 10 14 18 20 19 20 22 24 24 24
3 6 5 8 7 5 4 5 1 5 6 4 3 3 4 5 6 6 4 4 8 9 8 4 8 4 2 1 1 1 3 6 9 11 13 16 17 17 18 21 23 24 24 24
2 2 3 2 3 5 5 1 4 5 5 3 3 3 3 4 3 5 3 4 6 10 9 6 7 5 4 3 2 2 6 9 12 14 16 17 17 17 18 20 21 23 21 21
4 2 1 4 4 5 5 5 4 3 4 5 2 4 6 5 4 6 5 8 11 12 7 3 7 6 2 4 4 3 7 12 14 15 17 19 19 18 18 19 20 19 20 22
5 5 4 9 6 4 5 3 2 3 4 6 7 7 6 7 6 6 6 13 14 13 8 9 2 2 5 5 3 5 9 12 16 16 18 20 20 20 19 17 14 13 14 14
Wind_Direction
181 181 211 215 211 215 253 269 269 273 276 275 302 307 301 304 317 329 337 313 284 217 217 209 186 169 164 168 172 178 180 180 181 178 172 176 182 194 199 206 215 211 209 209
28 235 227 227 231 234 244 253 265 273 248 348 324 306 290 331 6 56 23 33 15 348 244 198 159 165 170 169 172 174 177 178 184 186 182 179 182 186 197 197 208 218 213 214
195 236 220 219 244 239 244 240 248 248 276 3 348 314 42 335 67 59 45 44 30 359 338 167 160 172 170 171 170 162 170 176 182 183 173 175 177 177 179 189 212 213 210 206
243 243 249 229 236 226 242 231 239 342 11 267 88 290 220 257 103 53 53 30 13 3 356 56 120 136 151 149 155 163 171 176 180 181 183 188 188 175 192 204 217 210 209 208
232 240 221 235 229 222 235 152 116 33 318 323 200 245 270 216 115 98 57 61 30 18 39 62 66 88 125 139 152 165 171 178 184 195 200 201 199 198 205 206 206 210 208 211
245 288 216 221 294 145 163 82 38 33 43 291 220 191 296 330 127 96 47 38 58 41 81 85 87 100 115 138 156 170 178 192 198 197 201 208 207 196 193 202 208 211 210 208
255 258 260 252 281 203 111 82 359 342 296 231 341 161 253 106 117 119 115 78 56 68 44 78 108 117 133 155 169 179 191 197 199 201 208 215 215 205 205 213 213 207 207 207
199 288 222 206 207 184 175 153 157 211 217 281 311 239 152 124 124 128 94 103 86 71 81 76 72 127 146 166 176 186 201 204 203 209 217 217 212 210 217 222 223 216 214 212
173 240 42 90 183 175 187 180 176 114 16 41 233 113 334 167 71 79 66 85 66 55 62 89 116 128 184 191 205 209 211 204 208 215 219 216 214 221 225 227 225 218 215 205
229 3 280 183 73 54 194 164 116 27 187 239 259 232 192 133 99 47 49 31 88 131 119 107 112 126 113 107 197 215 225 224 213 215 220 223 228 234 240 227 219 214 209 204
174 132 282 100 186 181 155 150 108 136 167 191 205 248 211 146 112 111 302 318 78 172 172 173 169 129 128 122 124 187 209 223 226 223 224 227 233 237 239 227 219 214 204 199
174 142 194 196 354 141 121 157 145 153 210 193 183 259 174 117 76 10 348 327 315 193 210 198 158 145 136 139 142 164 199 222 226 231 234 230 229 232 228 224 218 211 200 197
172 182 104 11 340 358 95 67 103 109 85 188 154 251 174 80 70 21 289 319 333 318 255 174 145 148 126 127 132 159 205 226 233 238 241 235 231 228 227 220 217 204 197 192
89 95 190 215 158 140 158 169 87 117 107 187 232 298 283 308 289 251 245 267 266 255 254 162 176 175 142 138 132 171 202 222 237 243 243 232 223 223 226 213 204 195 193 190
97 126 85 82 101 85 141 252 99 100 157 176 239 227 272 244 244 244 244 244 249 254 194 166 179 165 171 170 180 184 192 224 236 240 246 242 233 230 225 213 193 187 182 176
68 112 107 111 177 158 262 240 166 213 246 250 267 272 277 294 253 281 284 283 265 197 164 173 177 181 183 189 196 195 209 257 278 275 272 262 244 223 201 192 187 184 177 174
118 130 105 273 208 55 311 266 207 170 209 199 240 260 281 294 349 344 324 352 8 104 80 103 116 108 134 193 255 243 242 276 288 286 272 249 222 205 193 185 180 180 176 177
136 121 100 130 101 226 234 61 229 215 260 324 280 306 36 299 65 55 32 59 54 71 96 90 55 31 47 291 211 261 283 295 303 280 249 225 212 195 185 181 178 173 173 166
121 120 127 156 198 312 278 189 200 132 285 215 159 300 276 315 140 36 50 79 90 43 55 104 126 223 335 349 320 295 318 333 313 252 221 211 202 186 178 168 169 164 165 172
125 61 114 160 167 204 242 127 99 102 272 143 150 10 360 24 38 258 221 203 178 126 350 204 173 116 110 38 329 319 351 352 285 248 228 216 203 187 171 171 173 177 179 171
130 107 178 146 206 275 225 187 63 169 244 188 170 167 152 149 209 239 242 247 215 203 225 204 185 106 67 25 357 354 5 326 274 240 220 214 193 177 177 176 173 168 168 165
166 168 191 98 169 261 192 212 170 203 202 183 193 179 177 221 236 231 250 256 266 290 280 180 214 135 218 46 44 335 314 277 238 209 197 191 183 180 180 173 168 169 167 159
198 181 182 183 209 212 207 180 165 176 200 194 173 223 160 174 212 231 249 315 299 304 302 270 215 219 246 253 281 276 274 231 197 182 182 183 185 182 177 173 162 154 159 151
231 157 190 99 252 211 225 232 184 201 182 154 206 224 224 220 231 232 234 241 257 267 283 263 195 219 270 283 280 280 249 208 191 182 180 181 181 176 174 169 166 157 157 150
208 55 189 267 266 277 252 208 194 172 159 168 201 245 253 178 208 211 213 229 229 237 215 260 224 245 279 304 340 275 223 195 185 185 178 175 173 170 168 171 171 167 173 175
183 185 194 251 201 215 237 244 195 226 252 238 219 235 199 173 196 203 214 210 205 211 197 133 168 299 320 297 285 235 207 196 192 173 169 169 168 158 161 155 150 189 189 193